Time_in_sec,gx,gy,gz
1314273640.75359774,0.00274143,-0.00750068,-0.99996811
1314273640.80155945,0.00259348,-0.00740717,-0.99996920
1314273640.85646343,0.00250398,-0.00734984,-0.99996985
1314273640.90147924,0.00246996,-0.00721730,-0.99997090
1314273640.94319868,0.00213328,-0.00719532,-0.99997184
1314273641.00448012,0.00222328,-0.00693253,-0.99997350
1314273641.05249524,0.00238128,-0.00743227,-0.99996954
1314273641.10050011,0.00243810,-0.00762366,-0.99996797
1314273641.15247798,0.00247512,-0.00766541,-0.99996756
1314273641.20468020,0.00246834,-0.00781457,-0.99996642
1314273641.25254893,0.00251770,-0.00757999,-0.99996810
1314273641.30152130,0.00317218,-0.00827145,-0.99996076
1314273641.35247779,0.00316795,-0.00820430,-0.99996133
1314273641.40552592,0.00310858,-0.00822951,-0.99996131
1314273641.45439100,0.00306264,-0.00844795,-0.99995963
1314273641.50151587,0.00294089,-0.00810932,-0.99996279
1314273641.55351090,0.00293561,-0.00817708,-0.99996226
1314273641.60241961,0.00278879,-0.00836125,-0.99996116
1314273641.65361190,0.00288190,-0.00834388,-0.99996104
1314273641.69251227,0.00303962,-0.00840253,-0.99996008
1314273641.75246429,0.00293819,-0.00843809,-0.99996008
1314273641.80461168,0.00244659,-0.00821836,-0.99996324
1314273641.85409975,0.00220683,-0.00829690,-0.99996315
1314273641.90449238,0.00194062,-0.00839024,-0.99996292
1314273641.94148731,0.00211801,-0.00838699,-0.99996259
1314273642.00155902,0.00194136,-0.00826540,-0.99996396
1314273642.05247688,0.00284627,-0.00904619,-0.99995503
1314273642.10160422,0.00278387,-0.00919561,-0.99995384
1314273642.15247488,0.00274050,-0.00922591,-0.99995369
1314273642.20160198,0.00276217,-0.00889583,-0.99995662
1314273642.25409770,0.00279569,-0.00885016,-0.99995693
1314273642.30162334,0.00379111,-0.00921598,-0.99995035
1314273642.35251975,0.00357706,-0.00916315,-0.99995162
1314273642.40212870,0.00351758,-0.00916671,-0.99995180
1314273642.45360327,0.00352321,-0.00939780,-0.99994963
1314273642.50460267,0.00371077,-0.00937754,-0.99994914
1314273642.54458165,0.00431615,-0.00979681,-0.99994270
1314273642.60560131,0.00418402,-0.00964389,-0.99994474
1314273642.65397596,0.00429873,-0.00965536,-0.99994415
1314273642.69247866,0.00440886,-0.00962881,-0.99994392
1314273642.75360084,0.00456288,-0.00971227,-0.99994242
1314273642.80448604,0.00511337,-0.00966098,-0.99994026
1314273642.85250187,0.00502240,-0.00962020,-0.99994111
1314273642.90150762,0.00489264,-0.00991102,-0.99993892
1314273642.95246744,0.00470540,-0.01006212,-0.99993830
1314273643.00161409,0.00456309,-0.01014115,-0.99993817
1314273643.05351782,0.00615734,-0.00989220,-0.99993211
1314273643.10449505,0.00628113,-0.00967853,-0.99993343
1314273643.15351391,0.00650208,-0.00977157,-0.99993112
1314273643.20184731,0.00660739,-0.00970169,-0.99993111
1314273643.25361347,0.00644564,-0.00954539,-0.99993367
1314273643.30162430,0.00700215,-0.00919776,-0.99993318
1314273643.35261178,0.00733932,-0.00908555,-0.99993179
1314273643.40459728,0.00733274,-0.00898142,-0.99993278
1314273643.45368338,0.00716749,-0.00887788,-0.99993490
1314273643.50102973,0.00715878,-0.00869271,-0.99993659
1314273643.55359745,0.00703830,-0.00874512,-0.99993699
1314273643.60170293,0.00722562,-0.00862917,-0.99993666
1314273643.65361452,0.00708197,-0.00884371,-0.99993582
1314273643.69364357,0.00741062,-0.00878377,-0.99993396
1314273643.75248718,0.00716032,-0.00886271,-0.99993509
1314273643.80061197,0.00747698,-0.00854758,-0.99993551
1314273643.85356283,0.00725367,-0.00864274,-0.99993634
1314273643.90447760,0.00706297,-0.00889023,-0.99993554
1314273643.94448638,0.00683893,-0.00871723,-0.99993862
1314273644.00234294,0.00682600,-0.00869014,-0.99993894
1314273644.05260682,0.00698215,-0.00851580,-0.99993936
1314273644.10193324,0.00674218,-0.00849981,-0.99994115
1314273644.15051985,0.00663543,-0.00844180,-0.99994235
1314273644.20155334,0.00672972,-0.00842220,-0.99994189
1314273644.25042439,0.00694256,-0.00817095,-0.99994252
1314273644.30047512,0.00647044,-0.00693170,-0.99995504
1314273644.35354376,0.00639031,-0.00709383,-0.99995442
1314273644.40244484,0.00652879,-0.00721130,-0.99995268
1314273644.45255041,0.00659142,-0.00715914,-0.99995265
1314273644.50154281,0.00649285,-0.00695429,-0.99995474
1314273644.55443978,0.00558062,-0.00665721,-0.99996227
1314273644.60450840,0.00552006,-0.00678236,-0.99996176
1314273644.65427089,0.00562037,-0.00671927,-0.99996163
1314273644.69291830,0.00563605,-0.00688985,-0.99996038
1314273644.75245929,0.00586614,-0.00679899,-0.99995968
1314273644.80399323,0.00463440,-0.00592459,-0.99997171
1314273644.85360193,0.00454402,-0.00574016,-0.99997320
1314273644.90451813,0.00461174,-0.00577769,-0.99997267
1314273644.95247626,0.00480428,-0.00593636,-0.99997084
1314273645.00161314,0.00461619,-0.00558320,-0.99997376
1314273645.05414581,0.00446839,-0.00514499,-0.99997678
1314273645.10458660,0.00458005,-0.00518365,-0.99997608
1314273645.15360999,0.00451585,-0.00473532,-0.99997859
1314273645.20112967,0.00449704,-0.00481019,-0.99997832
1314273645.25247884,0.00467041,-0.00487531,-0.99997721
1314273645.30148292,0.00526915,-0.00501650,-0.99997354
1314273645.35257936,0.00530623,-0.00495395,-0.99997365
1314273645.40160108,0.00537887,-0.00489271,-0.99997356
1314273645.44546723,0.00554473,-0.00508425,-0.99997170
1314273645.50203824,0.00545668,-0.00509499,-0.99997213
1314273645.55362225,0.00559346,-0.00472002,-0.99997322
1314273645.60201240,0.00541259,-0.00452253,-0.99997512
1314273645.65245008,0.00540020,-0.00420871,-0.99997656
1314273645.69349527,0.00562775,-0.00447826,-0.99997414
1314273645.75247884,0.00553252,-0.00458032,-0.99997421
1314273645.80147028,0.00645982,-0.00462222,-0.99996845
1314273645.85397315,0.00628756,-0.00437493,-0.99997066
1314273645.90147233,0.00642225,-0.00434208,-0.99996995
1314273645.94184995,0.00658425,-0.00424351,-0.99996932
1314273646.00186801,0.00671455,-0.00417696,-0.99996873
1314273646.05345678,0.00507015,-0.00378173,-0.99998000
1314273646.10468221,0.00503775,-0.00371657,-0.99998040
1314273646.15247202,0.00486870,-0.00361725,-0.99998161
1314273646.20476627,0.00489629,-0.00399010,-0.99998005
1314273646.25246596,0.00454343,-0.00361777,-0.99998313
1314273646.30489397,0.00343251,-0.00387123,-0.99998662
1314273646.35246539,0.00336550,-0.00391934,-0.99998666
1314273646.40175295,0.00338337,-0.00405264,-0.99998606
1314273646.45260048,0.00339384,-0.00378324,-0.99998708
1314273646.50515628,0.00324630,-0.00381208,-0.99998746
1314273646.55246758,0.00265293,-0.00300722,-0.99999196
1314273646.60160136,0.00260899,-0.00301013,-0.99999207
1314273646.65358877,0.00262838,-0.00333778,-0.99999098
1314273646.69347119,0.00237515,-0.00320429,-0.99999205
1314273646.75362015,0.00240200,-0.00329063,-0.99999170
1314273646.80158949,0.00265687,-0.00401248,-0.99998842
1314273646.85251927,0.00258539,-0.00409352,-0.99998828
1314273646.90060353,0.00249106,-0.00420579,-0.99998805
1314273646.95260906,0.00255661,-0.00415100,-0.99998812
1314273647.00462103,0.00256314,-0.00396059,-0.99998887
1314273647.05346179,0.00334412,-0.00483494,-0.99998272
1314273647.10046458,0.00339949,-0.00511183,-0.99998116
1314273647.15344095,0.00333934,-0.00503174,-0.99998177
1314273647.20147181,0.00325553,-0.00490229,-0.99998268
1314273647.25357223,0.00304356,-0.00469184,-0.99998436
1314273647.30059457,0.00427975,-0.00600233,-0.99997283
1314273647.34449244,0.00430139,-0.00598027,-0.99997287
1314273647.40150523,0.00433053,-0.00627373,-0.99997094
1314273647.45441222,0.00452128,-0.00605601,-0.99997144
1314273647.50159240,0.00441322,-0.00618969,-0.99997111
1314273647.55346441,0.00638004,-0.00727943,-0.99995315
1314273647.60233879,0.00635697,-0.00731916,-0.99995301
1314273647.65252280,0.00646529,-0.00732124,-0.99995230
1314273647.70547366,0.00659151,-0.00736256,-0.99995117
1314273647.75432014,0.00655198,-0.00715114,-0.99995297
1314273647.80561304,0.00734308,-0.00766790,-0.99994364
1314273647.85430384,0.00729917,-0.00760536,-0.99994444
1314273647.90457749,0.00711886,-0.00778308,-0.99994437
1314273647.94560409,0.00685387,-0.00771490,-0.99994675
1314273648.00151253,0.00675212,-0.00783880,-0.99994648
1314273648.05260086,0.00724922,-0.00835483,-0.99993882
1314273648.10545349,0.00737174,-0.00825655,-0.99993874
1314273648.15247416,0.00729993,-0.00832701,-0.99993868
1314273648.20448422,0.00729584,-0.00826426,-0.99993923
1314273648.25246882,0.00729911,-0.00814647,-0.99994018
1314273648.30448985,0.00806538,-0.00834548,-0.99993265
1314273648.35259867,0.00814415,-0.00829548,-0.99993243
1314273648.40205812,0.00820007,-0.00818026,-0.99993292
1314273648.45257974,0.00812541,-0.00839679,-0.99993173
1314273648.50160360,0.00835798,-0.00828609,-0.99993074
1314273648.55248523,0.00972215,-0.00817220,-0.99991934
1314273648.60458326,0.00947442,-0.00829367,-0.99992072
1314273648.65366960,0.00949429,-0.00840263,-0.99991962
1314273648.69314075,0.00962078,-0.00842880,-0.99991819
1314273648.75258756,0.00974542,-0.00848837,-0.99991648
1314273648.80189300,0.00984468,-0.00768318,-0.99992202
1314273648.85360980,0.00976321,-0.00770768,-0.99992263
1314273648.90162349,0.00977460,-0.00743983,-0.99992455
1314273648.95248055,0.00992324,-0.00743978,-0.99992309
1314273649.00161266,0.00989276,-0.00723999,-0.99992486
1314273649.05388570,0.01081502,-0.00744361,-0.99991381
1314273649.10453963,0.01078122,-0.00708058,-0.99991681
1314273649.15249419,0.01082607,-0.00695935,-0.99991718
1314273649.20189428,0.01091686,-0.00725064,-0.99991412
1314273649.25361347,0.01083253,-0.00715110,-0.99991576
1314273649.30154562,0.01127595,-0.00749443,-0.99990834
1314273649.35246348,0.01113815,-0.00770796,-0.99990826
1314273649.40450859,0.01115580,-0.00755424,-0.99990924
1314273649.45373344,0.01107369,-0.00767763,-0.99990921
1314273649.50150275,0.01105074,-0.00746865,-0.99991105
1314273649.55352616,0.01149907,-0.00855229,-0.99989731
1314273649.60393453,0.01131444,-0.00829885,-0.99990155
1314273649.65361333,0.01128256,-0.00813589,-0.99990325
1314273649.69262171,0.01124262,-0.00802596,-0.99990459
1314273649.75249028,0.01140503,-0.00802540,-0.99990275
1314273649.80451131,0.01150909,-0.00851146,-0.99989754
1314273649.85246086,0.01146688,-0.00860725,-0.99989721
1314273649.90163684,0.01157204,-0.00851386,-0.99989680
1314273649.94453096,0.01173409,-0.00852249,-0.99989483
1314273650.00149083,0.01176261,-0.00815708,-0.99989755
1314273650.05595398,0.01256454,-0.00840082,-0.99988577
1314273650.10160065,0.01267904,-0.00851386,-0.99988337
1314273650.15647840,0.01283245,-0.00853643,-0.99988122
1314273650.19369173,0.01276833,-0.00847458,-0.99988257
1314273650.25346828,0.01285937,-0.00829302,-0.99988292
1314273650.30150676,0.01325037,-0.00884492,-0.99987309
1314273650.35267949,0.01319731,-0.00879484,-0.99987423
1314273650.40236855,0.01316376,-0.00867825,-0.99987569
1314273650.44174194,0.01317256,-0.00878876,-0.99987461
1314273650.50451398,0.01305244,-0.00851308,-0.99987857
1314273650.55247545,0.01308422,-0.00938023,-0.99987040
1314273650.60154891,0.01322777,-0.00932220,-0.99986905
1314273650.65246892,0.01316367,-0.00907406,-0.99987218
1314273650.69433188,0.01319209,-0.00912000,-0.99987139
1314273650.75245786,0.01315209,-0.00900675,-0.99987294
1314273650.80217624,0.01326072,-0.00878501,-0.99987348
1314273650.85246301,0.01357341,-0.00891793,-0.99986811
1314273650.90452385,0.01382426,-0.00908594,-0.99986316
1314273650.95246816,0.01383265,-0.00912856,-0.99986265
1314273651.00451016,0.01392671,-0.00893363,-0.99986311
1314273651.05247378,0.01391799,-0.00942593,-0.99985871
1314273651.10445023,0.01394800,-0.00940332,-0.99985851
1314273651.15344429,0.01418126,-0.00918688,-0.99985724
1314273651.20162106,0.01418409,-0.00934655,-0.99985572
1314273651.25246930,0.01436064,-0.00920730,-0.99985449
1314273651.31357312,0.01463640,-0.00922805,-0.99985030
1314273651.35375524,0.01421588,-0.00904630,-0.99985803
1314273651.40452909,0.01423053,-0.00907549,-0.99985755
1314273651.45385027,0.01443406,-0.00878739,-0.99985721
1314273651.50452137,0.01432884,-0.00852053,-0.99986103
1314273651.55259657,0.01404570,-0.00867557,-0.99986372
1314273651.60206079,0.01397192,-0.00895866,-0.99986225
1314273651.65250206,0.01389490,-0.00895518,-0.99986336
1314273651.70564866,0.01373164,-0.00903862,-0.99986486
1314273651.75248361,0.01371695,-0.00901835,-0.99986525
1314273651.80151224,0.01365289,-0.00916347,-0.99986481
1314273651.85389376,0.01386550,-0.00910190,-0.99986244
1314273651.90455508,0.01411557,-0.00899438,-0.99985992
1314273651.94456053,0.01419518,-0.00901675,-0.99985859
1314273652.00385356,0.01411630,-0.00927633,-0.99985733
1314273652.05309057,0.01468960,-0.00998818,-0.99984221
1314273652.10552716,0.01445358,-0.01015820,-0.99984394
1314273652.15246534,0.01443735,-0.01021424,-0.99984360
1314273652.20118070,0.01432117,-0.01010937,-0.99984634
1314273652.25358605,0.01421425,-0.00999183,-0.99984905
1314273652.30154634,0.01465833,-0.00975843,-0.99984494
1314273652.35351253,0.01446874,-0.00966623,-0.99984860
1314273652.40171266,0.01463165,-0.00954962,-0.99984735
1314273652.44179344,0.01455536,-0.00961773,-0.99984781
1314273652.50160885,0.01463248,-0.00960549,-0.99984680
1314273652.55378628,0.01456942,-0.00897240,-0.99985360
1314273652.60161304,0.01466966,-0.00903526,-0.99985157
1314273652.65363288,0.01474092,-0.00891753,-0.99985158
1314273652.69249868,0.01479664,-0.00901345,-0.99984990
1314273652.75349641,0.01472940,-0.00907588,-0.99985033
1314273652.80165553,0.01503277,-0.00873149,-0.99984888
1314273652.85360646,0.01516398,-0.00876343,-0.99984662
1314273652.90160537,0.01483825,-0.00888933,-0.99985039
1314273652.94448805,0.01474669,-0.00878089,-0.99985270
1314273653.00159359,0.01486648,-0.00877466,-0.99985099
1314273653.05250955,0.01502976,-0.00851461,-0.99985079
1314273653.10154200,0.01497432,-0.00842331,-0.99985240
1314273653.15289450,0.01490813,-0.00836645,-0.99985386
1314273653.19246554,0.01479378,-0.00820660,-0.99985689
1314273653.25359631,0.01460374,-0.00807740,-0.99986073
1314273653.30047584,0.01448756,-0.00838091,-0.99985993
1314273653.35248303,0.01441487,-0.00841184,-0.99986072
1314273653.40556717,0.01443743,-0.00833502,-0.99986103
1314273653.45037413,0.01416047,-0.00799314,-0.99986779
1314273653.50049043,0.01386649,-0.00782954,-0.99987320
1314273653.55350018,0.01397397,-0.00775933,-0.99987225
1314273653.60154080,0.01394470,-0.00781740,-0.99987221
1314273653.65352225,0.01385018,-0.00786963,-0.99987311
1314273653.70148444,0.01383586,-0.00807340,-0.99987169
1314273653.75262666,0.01381237,-0.00803391,-0.99987233
1314273653.80159855,0.01353206,-0.00820178,-0.99987480
1314273653.85247707,0.01381790,-0.00829076,-0.99987016
1314273653.90149617,0.01397987,-0.00828853,-0.99986792
1314273653.94162226,0.01397854,-0.00829204,-0.99986791
1314273654.00151372,0.01414707,-0.00798434,-0.99986805
1314273654.05360532,0.01493521,-0.00873336,-0.99985032
1314273654.10451150,0.01509050,-0.00872960,-0.99984802
1314273654.15246487,0.01521747,-0.00839139,-0.99984900
1314273654.20453715,0.01536808,-0.00839430,-0.99984667
1314273654.25403237,0.01525638,-0.00836513,-0.99984862
1314273654.30147934,0.01468385,-0.00806488,-0.99985966
1314273654.35361743,0.01472761,-0.00784838,-0.99986074
1314273654.40442300,0.01470566,-0.00796336,-0.99986015
1314273654.45360613,0.01488998,-0.00799224,-0.99985720
1314273654.50451565,0.01471342,-0.00789887,-0.99986055
1314273654.55248618,0.01472452,-0.00777362,-0.99986137
1314273654.60161376,0.01463653,-0.00781461,-0.99986234
1314273654.65394545,0.01477373,-0.00780493,-0.99986040
1314273654.70159864,0.01475740,-0.00786537,-0.99986017
1314273654.75362158,0.01480626,-0.00771794,-0.99986059
1314273654.80596209,0.01416430,-0.00818983,-0.99986614
1314273654.85248375,0.01433133,-0.00824420,-0.99986331
1314273654.90161252,0.01417965,-0.00830668,-0.99986496
1314273654.95246172,0.01408839,-0.00843401,-0.99986518
1314273655.00451756,0.01392792,-0.00851925,-0.99986671
1314273655.05381060,0.01358682,-0.00920578,-0.99986532
1314273655.10151553,0.01347086,-0.00891407,-0.99986953
1314273655.15259957,0.01333983,-0.00887941,-0.99987159
1314273655.20163727,0.01330969,-0.00888612,-0.99987194
1314273655.25250220,0.01343407,-0.00855248,-0.99987318
1314273655.30158210,0.01330944,-0.00818977,-0.99987789
1314273655.35247040,0.01324913,-0.00830506,-0.99987774
1314273655.40161371,0.01328861,-0.00832513,-0.99987704
1314273655.45365620,0.01341519,-0.00835578,-0.99987510
1314273655.50149441,0.01334123,-0.00814838,-0.99987780
1314273655.55350089,0.01476956,-0.00792391,-0.99985953
1314273655.60168934,0.01460148,-0.00800800,-0.99986132
1314273655.65347171,0.01448559,-0.00811625,-0.99986214
1314273655.70145583,0.01443104,-0.00810673,-0.99986300
1314273655.75247765,0.01456861,-0.00810515,-0.99986102
1314273655.80115628,0.01525554,-0.00829438,-0.99984922
1314273655.85247588,0.01541857,-0.00816877,-0.99984776
1314273655.90147924,0.01543621,-0.00828613,-0.99984652
1314273655.94147110,0.01580044,-0.00819970,-0.99984154
1314273656.00417447,0.01585997,-0.00815019,-0.99984101
1314273656.05245495,0.01618017,-0.00802052,-0.99983692
1314273656.10145521,0.01604513,-0.00823252,-0.99983738
1314273656.15244722,0.01630505,-0.00821183,-0.99983334
1314273656.20553684,0.01631803,-0.00806649,-0.99983431
1314273656.25039482,0.01626532,-0.00825616,-0.99983362
1314273656.30045819,0.01687230,-0.00834066,-0.99982286
1314273656.35247016,0.01681486,-0.00828135,-0.99982432
1314273656.40164447,0.01714887,-0.00829959,-0.99981850
1314273656.45351315,0.01696046,-0.00850171,-0.99982002
1314273656.50065851,0.01699241,-0.00874062,-0.99981741
1314273656.55249071,0.01710136,-0.00954817,-0.99980817
1314273656.60061550,0.01710486,-0.00955170,-0.99980808
1314273656.65423346,0.01728780,-0.00963401,-0.99980414
1314273656.69247317,0.01729627,-0.00968120,-0.99980354
1314273656.75245619,0.01735407,-0.00994936,-0.99979990
1314273656.80151916,0.01695487,-0.01091844,-0.99979664
1314273656.85249758,0.01693896,-0.01078163,-0.99979839
1314273656.90159750,0.01686295,-0.01065557,-0.99980103
1314273656.95659351,0.01675860,-0.01061893,-0.99980317
1314273657.00460672,0.01673058,-0.01058822,-0.99980397
1314273657.05422688,0.01669385,-0.01080601,-0.99980225
1314273657.10150695,0.01669503,-0.01083767,-0.99980189
1314273657.15279222,0.01652564,-0.01073164,-0.99980585
1314273657.20452023,0.01650607,-0.01046709,-0.99980898
1314273657.25304985,0.01645337,-0.01045711,-0.99980995
1314273657.30465174,0.01610034,-0.01096248,-0.99981028
1314273657.35254741,0.01615068,-0.01097439,-0.99980934
1314273657.40449667,0.01628720,-0.01068904,-0.99981022
1314273657.45350647,0.01633463,-0.01062285,-0.99981015
1314273657.50453401,0.01633129,-0.01062859,-0.99981014
1314273657.55380011,0.01733379,-0.01142387,-0.99978449
1314273657.60154796,0.01749564,-0.01158738,-0.99977979
1314273657.65245771,0.01745049,-0.01163347,-0.99978005
1314273657.69360185,0.01737894,-0.01175795,-0.99977984
1314273657.75256038,0.01734501,-0.01157630,-0.99978255
1314273657.80560827,0.01807998,-0.01372404,-0.99974235
1314273657.85378528,0.01787816,-0.01383926,-0.99974439
1314273657.90561557,0.01773359,-0.01362395,-0.99974992
1314273657.94562292,0.01769511,-0.01392429,-0.99974647
1314273658.00153089,0.01753737,-0.01383648,-0.99975047
1314273658.05247116,0.01753250,-0.01490355,-0.99973521
1314273658.10451174,0.01734601,-0.01482057,-0.99973970
1314273658.15248775,0.01759899,-0.01478322,-0.99973583
1314273658.19258976,0.01765061,-0.01487882,-0.99973350
1314273658.25382781,0.01768521,-0.01482530,-0.99973369
1314273658.30465150,0.01772912,-0.01511377,-0.99972859
1314273658.35246801,0.01778803,-0.01521471,-0.99972601
1314273658.40144300,0.01787370,-0.01519118,-0.99972484
1314273658.44149566,0.01800538,-0.01509123,-0.99972399
1314273658.50152349,0.01790149,-0.01512759,-0.99972531
1314273658.55247951,0.01763997,-0.01519680,-0.99972891
1314273658.60148597,0.01756741,-0.01523786,-0.99972956
